GORIZONT 27

Satellite information

Favourite Embed

Satellite Type and Status

PAYLOADIN ORBIT

Key statistics

Satellite GORIZONT 27 at a glance.

Uptime

12070

Days in orbit

Revolutions

≈ 1.0

Per day

Orbit

OTHER

Other

Inclination

13.8

Latest

Satellite identification and parameters

Extended collection of information and parameters for GORIZONT 27.

Object identification

Identified? True

Debris? False

Object name: GORIZONT 27

International designator: 1992-082A

Object number (NORAD): 22245

Object ID (CCSDS): 22245

Country: COMMONWEALTH OF INDEPENDENT STATES (CIS)

Current information (Y/N): Y

RCS size: LARGE

Orbital parameters

Period: 1437.928 minutes

Inclination: 13.8273 deg

SMA: 42200.56 km

Apoapsis: 35868.183 km

Periapsis: 35776.667 km

RAAN: 345.3421 deg

Eccentricy: 0.0010843

Argument of periapsis: 14.5064 deg

Mean anomaly: 345.6868 deg

Mean motion: 1.00144116 rev/day

Mean motion (dot): 0.00000065 rev/day2

B* drag term: 0.0 1/REarth

Two-line elements (TLE)

Creation date: Dec. 14, 2025, 3:07 a.m.

Reference frame: TEME

Reference center: EARTH

Epoch: Dec. 13, 2025, 1:43 p.m. UTC

TLE line 0: 0 GORIZONT 27

TLE line 1: 1 22245U 92082A 25347.57174997 .00000065 00000-0 00000-0 0 9997

TLE line 2: 2 22245 13.8273 345.3421 0010843 14.5064 345.6868 1.00144116125252

Live tracking on map

Real-time ground track for satellite GORIZONT 27.

In-orbit conjunctions

A list of the most updated potential collisions computed for object GORIZONT 27.

Target Orbit TCA Probability of collision Miss distance Type
EKRAN 11 OTHER 2025-11-11 17:08:57 TBA 4600.0 (m) PAYLOAD
EKRAN 6 OTHER 2025-11-10 16:47:14 TBA 2528.0 (m) PAYLOAD

Associated space launch

Geostationary communications satellite

GORIZONT 27 was lifted into orbit during the mission ‘Proton | Gorizont 27’, on board a Proton space rocket.

The launch took place on Nov. 27, 1992, 1:10 p.m. from 81/23 (81L).

For more information about the launch, click the button.

Launch to space Proton | Gorizont 27
Proton | Gorizont 27

Agency: N/A

Status: Launch Successful

Launch date: Nov. 27, 1992, 1:10 p.m. UTC

Rocket: Proton

Launch pad: 81/23 (81L)

Location: Baikonur Cosmodrome, Republic of Kazakhstan

...

Latest news about this satellite

There are no fresh news available about this satellite. Check back as we update our databases every day.


Newsletter sign-up

Weekly statistics, charts and insights to help you stay on top of the space industry.